Location: Newark
(5.2936°N, 52.5831°W)
Time: 12:39:15
(UTC+00:00)

N. Korean satellite - Visible Passes

Search period start: 15 July 2020 00:00
Search period end: 25 July 2020 00:00
Orbit: 453 x 506 km, 97.2° (Epoch: 14 July)

Date Brightness Start Highest point End Pass type
(mag) Time Alt. Az. Time Alt. Az. Time Alt. Az.
15 Jul 7.0 08:39:22 10° NNE 08:42:43 60° E 08:46:08 10° S visible
16 Jul 9.0 08:14:20 10° NE 08:16:57 21° E 08:19:36 10° SSE visible
18 Jul 6.4 08:55:08 10° N 08:58:32 66° W 09:01:58 10° SSW visible
19 Jul 7.9 08:29:32 10° NNE 08:32:45 39° E 08:36:01 10° S visible
20 Jul 9.5 08:05:00 10° ENE 08:06:58 15° E 08:08:58 10° SE visible
22 Jul 6.6 08:45:06 10° NNE 08:48:32 80° ESE 08:52:02 10° S visible
23 Jul 8.6 08:19:48 10° NE 08:22:45 26° E 08:25:45 10° SSE visible
24 Jul 9.9 07:56:34 10° E 07:56:58 10° E 07:57:23 10° ESE visible
